Location: Joffre
(52.3362°N, 113.5373°W)
Time: 11:45:55
(UTC+00:00)

Envisat - Pass Details

Date: 03 December 2021
Orbit: 764 x 766 km, 98.2° (Epoch: 23 January)

Event Time Altitude Azimuth Distance (km) Brightness Sun altitude
Rises 14:27:00 0° 6° (N) 3,248 6.0 -8.4°
Reaches altitude 10° 14:29:53 10° 350° (N) 2,317 5.1 -8.0°
Maximum altitude 14:33:26 20° 305° (NW) 1,745 4.2 -7.5°
Drops below altitude 10° 14:36:59 10° 261° (W) 2,306 5.0 -7.0°
Sets 14:39:51 0° 244° (WSW) 3,228 5.9 -6.6°
